Regional Weather Roundup
Issued by NWS Albany, NY

Home | Current Version | Previous Version | Text Only | Print | Product List | Glossary On
Versions: 1 2 3 4 5 6 7 8 9 10 11 12 13 14 15 16 17 18 19 20 21 22 23 24 25 26 27 28 29 30 31 32 33 34 35 36 37 38 39 40 41 42 43 44 45 46 47 48
000
ASUS41 KALY 030310
RWRALY

NEW YORK STATE HOURLY WEATHER ROUNDUP
NATIONAL WEATHER SERVICE ALBANY NY
1100 PM EDT WED SEP 02 2015

NOTE: "FAIR" INDICATES FEW OR NO CLOUDS BELOW 12,000 FEET WITH NO
SIGNIFICANT WEATHER AND/OR NO OBSTRUCTIONS TO VISIBILITY.

NYZ032-033-038>043-046>054-057>066-NYZ062>081-030400-
EAST


CITY           SKY/WX    TMP DP  RH WIND       PRES   REMARKS
ALBANY         PTCLDY    75  65  70 CALM      29.89S
GLENS FALLS    CLEAR     68  66  93 CALM      29.88S FOG
POUGHKEEPSIE   CLEAR     71  66  84 CALM      29.89S
NEWBURGH       CLEAR     75  66  73 CALM      29.92S
MONTGOMERY     CLEAR     69  65  86 CALM      29.91R
WHITE PLAINS   CLEAR     70  65  84 CALM      29.91S
ISLIP          PTCLDY    75  66  73 S6        29.89F
NEW YORK CITY  PTCLDY    78  71  79 S6        29.89S
CENTRAL PARK   CLEAR     78  69  73 CALM      29.93S
$$

NYZ005>009-017-018-044>046-055-056-030400-
CENTRAL


CITY           SKY/WX    TMP DP  RH WIND       PRES   REMARKS
FULTON         FOG       68  66  93 CALM      29.93S VSB 1/4
SYRACUSE       PTCLDY    70  69  97 CALM      29.93S FOG
ROME           CLEAR     65  63  93 N3        29.95S
ELMIRA         CLEAR     68  67  96 CALM      29.97R
BINGHAMTON     CLEAR     74  65  73 NW3       29.99S
MONTICELLO     CLEAR     68  64  88 NW3       29.98S
$$

NYZ026>034-041>043-030400-
NORTH


CITY           SKY/WX    TMP DP  RH WIND       PRES   REMARKS
WATERTOWN      PTCLDY    67  65  93 CALM      29.92F FOG
FORT DRUM      NOT AVBL
MASSENA        CLOUDY    71  68  90 S5        29.90F FOG
SARANAC LAKE   MOCLDY    59  57  93 CALM      29.97S FOG
PLATTSBURGH    MOCLDY    73  66  78 SW3       29.89S
$$

NYZ001>004-010>016-019>021-030400-
WEST


CITY           SKY/WX    TMP DP  RH WIND       PRES   REMARKS
NIAGARA FALLS  PTCLDY    73  70  90 SW6       29.94S
BUFFALO        MOCLDY    75  69  81 SW10      29.96S
DUNKIRK        CLEAR     72  67  84 SW6       29.97F
JAMESTOWN      CLEAR     70  64  83 CALM      30.03S
WELLSVILLE     CLEAR     69  64  84 CALM      30.06S
ROCHESTER      CLEAR     72  68  87 SW5       29.95S
PENN YAN       CLEAR     70  67  90 CALM      29.97S FOG
$$

             KEY
       WCI = WIND CHILL INDEX
       VSB = VISIBILITY
       HX  = HEAT INDEX
$$



USA.gov is the U.S. government's official web portal to all federal, state and local government web resources and services.